Time,TemperatureF,DewpointF,PressureIn,WindDirection,WindDirectionDegrees,WindSpeedMPH,WindSpeedGustMPH,Humidity,HourlyPrecipIn,Conditions,Clouds,dailyrainin,SoftwareType,DateUTC
2013-06-25 00:10:00,61.1,31.0,29.47,West,259,4.0,12.0,32,0.00,,,0.00,weatherlink.com 1.10,2013-06-25 07:10:00,
2013-06-25 00:25:00,60.8,34.0,29.46,West,275,4.0,13.0,37,0.00,,,0.00,weatherlink.com 1.10,2013-06-25 07:25:00,
2013-06-25 00:40:00,60.5,36.0,29.46,SW,236,6.0,11.0,40,0.00,,,0.00,weatherlink.com 1.10,2013-06-25 07:40:00,
2013-06-25 00:55:00,60.1,39.0,29.46,SW,232,8.0,17.0,46,0.00,,,0.00,weatherlink.com 1.10,2013-06-25 07:55:00,
2013-06-25 01:10:00,59.8,39.0,29.45,South,172,6.0,21.0,46,0.00,,,0.00,weatherlink.com 1.10,2013-06-25 08:10:00,
2013-06-25 01:25:00,59.4,38.0,29.46,West,259,5.0,21.0,46,0.00,,,0.00,weatherlink.com 1.10,2013-06-25 08:25:00,
2013-06-25 01:40:00,58.9,38.0,29.45,SSW,200,7.0,16.0,47,0.00,,,0.00,weatherlink.com 1.10,2013-06-25 08:40:00,
2013-06-25 01:55:00,58.9,38.0,29.45,WSW,253,2.0,18.0,47,0.00,,,0.00,weatherlink.com 1.10,2013-06-25 08:55:00,
2013-06-25 02:10:00,58.6,38.0,29.45,West,260,8.0,22.0,46,0.00,,,0.00,weatherlink.com 1.10,2013-06-25 09:10:00,
2013-06-25 02:25:00,58.4,39.0,29.45,WSW,245,9.0,24.0,48,0.00,,,0.00,weatherlink.com 1.10,2013-06-25 09:25:00,
2013-06-25 02:40:00,58.1,39.0,29.44,West,267,16.0,21.0,49,0.00,,,0.00,weatherlink.com 1.10,2013-06-25 09:40:00,
2013-06-25 02:55:00,57.9,39.0,29.44,SW,218,7.0,23.0,49,0.00,,,0.00,weatherlink.com 1.10,2013-06-25 09:55:00,
2013-06-25 03:10:00,57.4,39.0,29.43,WSW,240,8.0,17.0,50,0.00,,,0.00,weatherlink.com 1.10,2013-06-25 10:10:00,
2013-06-25 03:26:00,57.0,38.0,29.44,SSE,158,3.0,16.0,50,0.00,,,0.00,weatherlink.com 1.10,2013-06-25 10:26:00,
2013-06-25 03:41:00,56.7,38.0,29.44,South,188,10.0,17.0,49,0.00,,,0.00,weatherlink.com 1.10,2013-06-25 10:41:00,
2013-06-25 03:56:00,56.7,38.0,29.44,West,269,10.0,23.0,50,0.00,,,0.00,weatherlink.com 1.10,2013-06-25 10:56:00,
2013-06-25 04:11:00,56.8,36.0,29.44,SW,232,6.0,22.0,46,0.00,,,0.00,weatherlink.com 1.10,2013-06-25 11:11:00,
2013-06-25 04:26:00,56.6,36.0,29.44,West,263,12.0,24.0,47,0.00,,,0.00,weatherlink.com 1.10,2013-06-25 11:26:00,
2013-06-25 04:41:00,56.4,36.0,29.43,SSW,203,12.0,26.0,46,0.00,,,0.00,weatherlink.com 1.10,2013-06-25 11:41:00,
2013-06-25 04:56:00,56.7,29.0,29.44,West,277,18.0,30.0,35,0.00,,,0.00,weatherlink.com 1.10,2013-06-25 11:56:00,
2013-06-25 05:11:00,56.9,27.0,29.44,South,172,15.0,28.0,32,0.00,,,0.00,weatherlink.com 1.10,2013-06-25 12:11:00,
2013-06-25 05:26:00,57.4,21.0,29.45,SE,129,14.0,29.0,24,0.00,,,0.00,weatherlink.com 1.10,2013-06-25 12:26:00,
2013-06-25 05:41:00,57.7,17.0,29.46,SW,233,7.0,19.0,20,0.00,,,0.00,weatherlink.com 1.10,2013-06-25 12:41:00,
2013-06-25 05:56:00,58.9,10.0,29.47,SSW,210,6.0,16.0,14,0.00,,,0.00,weatherlink.com 1.10,2013-06-25 12:56:00,
2013-06-25 06:11:00,60.4,5.0,29.49,East,86,4.0,16.0,11,0.00,,,0.00,weatherlink.com 1.10,2013-06-25 13:11:00,
2013-06-25 06:26:00,60.6,9.0,29.49,South,172,3.0,10.0,13,0.00,,,0.00,weatherlink.com 1.10,2013-06-25 13:26:00,
2013-06-25 06:41:00,59.7,10.0,29.50,SSW,200,6.0,15.0,14,0.00,,,0.00,weatherlink.com 1.10,2013-06-25 13:41:00,
2013-06-25 06:56:00,60.7,8.0,29.51,WSW,248,6.0,14.0,12,0.00,,,0.00,weatherlink.com 1.10,2013-06-25 13:56:00,
2013-06-25 07:11:00,62.1,7.0,29.52,WNW,290,3.0,11.0,11,0.00,,,0.00,weatherlink.com 1.10,2013-06-25 14:11:00,
2013-06-25 07:26:00,62.3,7.0,29.52,SSE,160,4.0,16.0,11,0.00,,,0.00,weatherlink.com 1.10,2013-06-25 14:26:00,
2013-06-25 07:41:00,62.4,9.0,29.53,West,270,4.0,9.0,12,0.00,,,0.00,weatherlink.com 1.10,2013-06-25 14:41:00,
2013-06-25 07:56:00,63.2,10.0,29.54,West,264,2.0,10.0,12,0.00,,,0.00,weatherlink.com 1.10,2013-06-25 14:56:00,
2013-06-25 08:11:00,64.1,8.0,29.54,SW,226,3.0,8.0,11,0.00,,,0.00,weatherlink.com 1.10,2013-06-25 15:11:00,
2013-06-25 08:26:00,64.7,13.0,29.54,NW,312,2.0,8.0,13,0.00,,,0.00,weatherlink.com 1.10,2013-06-25 15:26:00,
2013-06-25 08:41:00,65.2,5.0,29.55,SSW,203,9.0,9.0,9,0.00,,,0.00,weatherlink.com 1.10,2013-06-25 15:41:00,
2013-06-25 08:56:00,66.4,10.0,29.55,East,84,3.0,5.0,11,0.00,,,0.00,weatherlink.com 1.10,2013-06-25 15:56:00,
2013-06-25 09:11:00,67.3,28.0,29.55,SE,126,1.0,6.0,23,0.00,,,0.00,weatherlink.com 1.10,2013-06-25 16:11:00,
2013-06-25 09:26:00,67.8,18.0,29.55,ENE,77,4.0,5.0,15,0.00,,,0.00,weatherlink.com 1.10,2013-06-25 16:26:00,
2013-06-25 09:41:00,68.3,27.0,29.55,SSE,155,1.0,10.0,21,0.00,,,0.00,weatherlink.com 1.10,2013-06-25 16:41:00,
2013-06-25 09:56:00,68.8,31.0,29.55,ESE,119,2.0,5.0,25,0.00,,,0.00,weatherlink.com 1.10,2013-06-25 16:56:00,
2013-06-25 10:11:00,68.5,20.0,29.56,ESE,105,2.0,8.0,16,0.00,,,0.00,weatherlink.com 1.10,2013-06-25 17:11:00,
2013-06-25 10:26:00,69.9,27.0,29.55,East,101,2.0,5.0,20,0.00,,,0.00,weatherlink.com 1.10,2013-06-25 17:26:00,
2013-06-25 10:41:00,70.1,17.0,29.56,SE,129,2.0,7.0,13,0.00,,,0.00,weatherlink.com 1.10,2013-06-25 17:41:00,
2013-06-25 10:56:00,69.8,23.0,29.56,East,88,3.0,12.0,17,0.00,,,0.00,weatherlink.com 1.10,2013-06-25 17:56:00,
2013-06-25 11:11:00,71.8,29.0,29.56,SSW,194,4.0,4.0,20,0.00,,,0.00,weatherlink.com 1.10,2013-06-25 18:11:00,
2013-06-25 11:26:00,73.1,28.0,29.55,SE,125,0.0,5.0,19,0.00,,,0.00,weatherlink.com 1.10,2013-06-25 18:26:00,
2013-06-25 11:41:00,74.5,28.0,29.55,NW,308,0.0,5.0,18,0.00,,,0.00,weatherlink.com 1.10,2013-06-25 18:41:00,
2013-06-25 11:56:00,75.5,19.0,29.55,North,9,4.0,7.0,12,0.00,,,0.00,weatherlink.com 1.10,2013-06-25 18:56:00,
2013-06-25 12:11:00,75.2,19.0,29.55,South,174,6.0,6.0,12,0.00,,,0.00,weatherlink.com 1.10,2013-06-25 19:11:00,
2013-06-25 12:26:00,73.9,14.0,29.56,NE,39,2.0,8.0,10,0.00,,,0.00,weatherlink.com 1.10,2013-06-25 19:26:00,
2013-06-25 12:41:00,75.2,15.0,29.56,SSW,197,9.0,9.0,10,0.00,,,0.00,weatherlink.com 1.10,2013-06-25 19:41:00,
2013-06-25 12:56:00,75.3,13.0,29.55,SW,222,6.0,8.0,9,0.00,,,0.00,weatherlink.com 1.10,2013-06-25 19:56:00,
2013-06-25 13:11:00,74.0,9.0,29.55,NW,305,2.0,9.0,8,0.00,,,0.00,weatherlink.com 1.10,2013-06-25 20:11:00,
2013-06-25 13:26:00,75.1,12.0,29.55,SE,138,1.0,8.0,9,0.00,,,0.00,weatherlink.com 1.10,2013-06-25 20:26:00,
2013-06-25 13:42:00,74.4,14.0,29.55,SE,134,5.0,10.0,10,0.00,,,0.00,weatherlink.com 1.10,2013-06-25 20:42:00,
2013-06-25 13:57:00,74.4,14.0,29.54,SW,233,5.0,10.0,10,0.00,,,0.00,weatherlink.com 1.10,2013-06-25 20:57:00,
2013-06-25 14:12:00,75.4,13.0,29.54,North,356,2.0,7.0,9,0.00,,,0.00,weatherlink.com 1.10,2013-06-25 21:12:00,
2013-06-25 14:27:00,74.8,9.0,29.54,WNW,297,2.0,10.0,8,0.00,,,0.00,weatherlink.com 1.10,2013-06-25 21:27:00,
2013-06-25 14:42:00,76.0,16.0,29.53,ESE,112,1.0,8.0,10,0.00,,,0.00,weatherlink.com 1.10,2013-06-25 21:42:00,
2013-06-25 14:57:00,76.5,13.0,29.53,SE,127,1.0,7.0,9,0.00,,,0.00,weatherlink.com 1.10,2013-06-25 21:57:00,
2013-06-25 15:12:00,76.3,16.0,29.53,SE,138,1.0,6.0,10,0.00,,,0.00,weatherlink.com 1.10,2013-06-25 22:12:00,
2013-06-25 15:27:00,76.0,16.0,29.52,SW,235,2.0,8.0,10,0.00,,,0.00,weatherlink.com 1.10,2013-06-25 22:27:00,
2013-06-25 15:42:00,76.3,16.0,29.52,WNW,297,3.0,12.0,10,0.00,,,0.00,weatherlink.com 1.10,2013-06-25 22:42:00,
2013-06-25 15:57:00,76.3,18.0,29.52,ENE,74,0.0,9.0,11,0.00,,,0.00,weatherlink.com 1.10,2013-06-25 22:57:00,
2013-06-25 16:12:00,75.5,17.0,29.51,SSW,197,2.0,14.0,11,0.00,,,0.00,weatherlink.com 1.10,2013-06-25 23:12:00,
2013-06-25 16:27:00,76.2,13.0,29.51,North,354,2.0,8.0,9,0.00,,,0.00,weatherlink.com 1.10,2013-06-25 23:27:00,
2013-06-25 16:42:00,75.9,15.0,29.51,East,93,2.0,7.0,10,0.00,,,0.00,weatherlink.com 1.10,2013-06-25 23:42:00,
2013-06-25 16:57:00,75.7,15.0,29.50,West,262,1.0,10.0,10,0.00,,,0.00,weatherlink.com 1.10,2013-06-25 23:57:00,
2013-06-25 17:12:00,75.7,15.0,29.51,West,278,1.0,7.0,10,0.00,,,0.00,weatherlink.com 1.10,2013-06-26 00:12:00,
2013-06-25 17:27:00,74.8,19.0,29.50,WSW,248,7.0,11.0,12,0.00,,,0.00,weatherlink.com 1.10,2013-06-26 00:27:00,
2013-06-25 17:42:00,74.2,18.0,29.50,South,174,7.0,8.0,12,0.00,,,0.00,weatherlink.com 1.10,2013-06-26 00:42:00,
2013-06-25 17:58:00,73.5,18.0,29.50,West,267,8.0,12.0,12,0.00,,,0.00,weatherlink.com 1.10,2013-06-26 00:58:00,
2013-06-25 18:12:00,73.0,17.0,29.50,East,89,2.0,10.0,12,0.00,,,0.00,weatherlink.com 1.10,2013-06-26 01:12:00,
2013-06-25 18:27:00,73.1,17.0,29.50,West,262,7.0,11.0,12,0.00,,,0.00,weatherlink.com 1.10,2013-06-26 01:27:00,
2013-06-25 18:42:00,72.5,17.0,29.51,SW,231,6.0,10.0,12,0.00,,,0.00,weatherlink.com 1.10,2013-06-26 01:42:00,
2013-06-25 18:57:00,71.3,16.0,29.50,SW,232,5.0,9.0,12,0.00,,,0.00,weatherlink.com 1.10,2013-06-26 01:57:00,
2013-06-25 19:12:00,70.3,15.0,29.50,WSW,243,5.0,9.0,12,0.00,,,0.00,weatherlink.com 1.10,2013-06-26 02:12:00,
2013-06-25 19:27:00,68.9,14.0,29.51,SW,232,6.0,9.0,12,0.00,,,0.00,weatherlink.com 1.10,2013-06-26 02:27:00,
2013-06-25 19:42:00,67.4,15.0,29.51,SW,232,8.0,9.0,13,0.00,,,0.00,weatherlink.com 1.10,2013-06-26 02:42:00,
2013-06-25 19:57:00,66.8,16.0,29.51,West,259,9.0,11.0,14,0.00,,,0.00,weatherlink.com 1.10,2013-06-26 02:57:00,
2013-06-25 20:12:00,66.9,14.0,29.51,SW,225,9.0,12.0,13,0.00,,,0.00,weatherlink.com 1.10,2013-06-26 03:12:00,
2013-06-25 20:27:00,67.0,16.0,29.51,West,266,8.0,15.0,14,0.00,,,0.00,weatherlink.com 1.10,2013-06-26 03:27:00,
2013-06-25 20:42:00,66.7,16.0,29.52,WNW,293,9.0,13.0,14,0.00,,,0.00,weatherlink.com 1.10,2013-06-26 03:42:00,
2013-06-25 20:57:00,66.3,17.0,29.52,West,263,7.0,10.0,15,0.00,,,0.00,weatherlink.com 1.10,2013-06-26 03:57:00,
2013-06-25 21:12:00,66.1,17.0,29.52,SW,226,11.0,15.0,15,0.00,,,0.00,weatherlink.com 1.10,2013-06-26 04:12:00,
2013-06-25 21:28:00,65.9,17.0,29.53,West,263,12.0,15.0,15,0.00,,,0.00,weatherlink.com 1.10,2013-06-26 04:28:00,
2013-06-25 21:43:00,66.7,17.0,29.53,West,281,10.0,20.0,15,0.00,,,0.00,weatherlink.com 1.10,2013-06-26 04:43:00,
2013-06-25 21:58:00,66.4,17.0,29.53,SSW,212,12.0,20.0,15,0.00,,,0.00,weatherlink.com 1.10,2013-06-26 04:58:00,
2013-06-25 22:13:00,66.1,18.0,29.53,SW,236,10.0,21.0,16,0.00,,,0.00,weatherlink.com 1.10,2013-06-26 05:13:00,
2013-06-25 22:28:00,65.2,18.0,29.54,SW,224,5.0,13.0,16,0.00,,,0.00,weatherlink.com 1.10,2013-06-26 05:28:00,
2013-06-25 22:43:00,64.9,17.0,29.54,WNW,296,4.0,18.0,16,0.00,,,0.00,weatherlink.com 1.10,2013-06-26 05:43:00,
2013-06-25 22:58:00,64.0,18.0,29.54,West,274,10.0,15.0,17,0.00,,,0.00,weatherlink.com 1.10,2013-06-26 05:58:00,
2013-06-25 23:13:00,62.8,18.0,29.54,SSW,207,4.0,12.0,18,0.00,,,0.00,weatherlink.com 1.10,2013-06-26 06:13:00,
2013-06-25 23:28:00,62.9,19.0,29.55,WNW,295,5.0,12.0,18,0.00,,,0.00,weatherlink.com 1.10,2013-06-26 06:28:00,
2013-06-25 23:43:00,62.6,18.0,29.55,WNW,282,8.0,11.0,18,0.00,,,0.00,weatherlink.com 1.10,2013-06-26 06:43:00,
2013-06-25 23:58:00,61.5,17.0,29.55,WSW,257,5.0,7.0,18,0.00,,,0.00,weatherlink.com 1.10,2013-06-26 06:58:00,